TimeCDT,TemperatureF,Dew PointF,Humidity,Sea Level PressureIn,VisibilityMPH,Wind Direction,Wind SpeedMPH,Gust SpeedMPH,PrecipitationIn,Events,Conditions,WindDirDegrees,DateUTC
12:52 AM,69.1,59.0,70,29.80,10.0,SSE,6.9,-,N/A,,Mostly Cloudy,150,2013-05-17 05:52:00
1:52 AM,68.0,57.9,70,29.80,10.0,SE,6.9,-,N/A,,Scattered Clouds,140,2013-05-17 06:52:00
2:52 AM,68.0,59.0,73,29.80,10.0,ESE,8.1,-,N/A,,Mostly Cloudy,120,2013-05-17 07:52:00
3:52 AM,66.9,59.0,76,29.81,10.0,SSE,8.1,-,0.00,,Overcast,150,2013-05-17 08:52:00
4:52 AM,66.9,59.0,76,29.82,10.0,SE,5.8,-,N/A,,Overcast,130,2013-05-17 09:52:00
5:52 AM,66.0,59.0,78,29.83,10.0,SSE,8.1,-,N/A,,Mostly Cloudy,150,2013-05-17 10:52:00
6:52 AM,66.9,59.0,76,29.85,10.0,SSE,6.9,-,N/A,,Mostly Cloudy,150,2013-05-17 11:52:00
7:52 AM,66.9,59.0,76,29.88,10.0,South,8.1,-,N/A,,Mostly Cloudy,170,2013-05-17 12:52:00
8:52 AM,70.0,60.1,71,29.89,10.0,SSW,4.6,-,N/A,,Mostly Cloudy,200,2013-05-17 13:52:00
9:52 AM,72.0,60.1,66,29.88,10.0,Variable,4.6,-,N/A,,Mostly Cloudy,0,2013-05-17 14:52:00
10:52 AM,75.0,61.0,62,29.88,10.0,Variable,3.5,-,N/A,,Scattered Clouds,0,2013-05-17 15:52:00
11:52 AM,77.0,60.1,56,29.87,10.0,South,10.4,-,N/A,,Scattered Clouds,190,2013-05-17 16:52:00
12:52 PM,81.0,60.1,49,29.86,10.0,South,13.8,18.4,N/A,,Scattered Clouds,190,2013-05-17 17:52:00
1:52 PM,82.9,59.0,44,29.83,10.0,South,9.2,-,N/A,,Scattered Clouds,180,2013-05-17 18:52:00
2:52 PM,84.0,57.9,41,29.83,10.0,South,6.9,17.3,N/A,,Scattered Clouds,170,2013-05-17 19:52:00
3:52 PM,84.0,57.9,41,29.81,10.0,SSE,5.8,16.1,N/A,,Scattered Clouds,150,2013-05-17 20:52:00
4:52 PM,84.9,57.9,40,29.80,10.0,SSE,10.4,18.4,N/A,,Scattered Clouds,150,2013-05-17 21:52:00
5:52 PM,84.9,57.9,40,29.80,10.0,SSE,11.5,-,N/A,,Scattered Clouds,160,2013-05-17 22:52:00
6:52 PM,84.0,57.9,41,29.79,10.0,SSE,13.8,-,N/A,,Scattered Clouds,160,2013-05-17 23:52:00
7:52 PM,81.0,57.9,45,29.80,10.0,SSE,13.8,-,N/A,,Scattered Clouds,150,2013-05-18 00:52:00
8:52 PM,78.1,57.9,50,29.83,10.0,SSE,13.8,-,N/A,,Partly Cloudy,150,2013-05-18 01:52:00
9:52 PM,75.9,59.0,56,29.86,10.0,SSE,15.0,-,N/A,,Partly Cloudy,150,2013-05-18 02:52:00
10:52 PM,73.9,59.0,59,29.86,10.0,SSE,13.8,23.0,N/A,,Clear,160,2013-05-18 03:52:00
11:52 PM,71.1,60.1,68,29.87,10.0,SE,11.5,-,N/A,,Partly Cloudy,140,2013-05-18 04:52:00